Volver al catálogo

STARLINK-37468

ActivoComunicacionesSSO
NORAD 68857·PAYLOAD·🇺🇸 United States

Lanzado Apr 26, 2026 desde Vandenberg Space Force Base

Loading…

Próximos Pases (próximas 24 horas)

TLE

ActualizadoSource: CelesTrak SupGP

Época: Sep 14, 2026, 21:04 UTC

1 68857C 26094U   26257.87826389  .00030003  00000+0  93149-3 0  2579
2 68857  97.2836 271.1243 0001578  88.3943  96.6969 15.33419393    14

Sigue STARLINK-37468 en tiempo real con AllMySat

Download on the App Store